SENTINEL-3A (41335 NORAD) Tracking and Keplerian Element Data

This shows tracking and keplerian element data for the satellite.

Feedback or suggestion? Click here.




ElementValue
Catalog41335
NameSENTINEL-3A
Epoch Orbit20909
Epoch Day53.15396913
Epoch Year2020
RAAN121.5561
Inclination98.6224
Eccentricity0.0001264
Argument of Perigee110.8977
Mean Anonmoly249.2339
Mean Motion14.26738005
Decay Rate-8E-08
L11 41335U 16011A 20053.15396913 -.00000008 00000-0 14531-4 0 9999
L22 41335 98.6224 121.5561 0001264 110.8977 249.2339 14.26738005209094

Live tracking and technical data element details for SENTINEL-3A (NORAD 41335). SENTINEL-3A can be tracked NOW for your location showing map with azimuth and elevation plus other details from your city location.

Track the satellite on the map from your city or location and see movement details for azimuth, elevation, latitude, longitude, range, height, and movement on the map or in text.







IsCatalogInMostPopularTable: catalog: 41335, numindb: 411
Update: records affected: 1



GetName: 41335 SENTINEL-3A

Hit Count: updated at: Sun, 23 Feb 2020 07:26:43 GMT